DW0805 Weather Reports


time (UTC)temp
C
wind
direction
speed
KPH
gust
KPH
rain 1hr
cm
rain 24hr
cm
rain mn
cm
humidity
%
barometer
mb
20260905172515 16 289 27.4 46.7 0.00 0.23 0.00 74 1009.2
20260905171515 16 275 33.8 45.1 0.00 0.23 0.00 72 1009.1
20260905165515 16 298 29.0 45.1 0.00 0.23 0.00 73 1009.0
20260905164516 17 278 29.0 45.1 0.00 0.23 0.00 74 1008.9
20260905163515 16 261 29.0 41.8 0.00 0.23 0.00 74 1008.8
20260905162515 17 281 29.0 41.8 0.00 0.23 0.00 73 1008.6
20260905160514 17 266 29.0 45.1 0.00 0.23 0.00 72 1008.4
20260905154516 17 261 20.9 35.4 0.00 0.23 0.00 75 1008.2
20260905153514 17 276 22.5 38.6 0.00 0.23 0.00 75 1008.1
20260905152514 17 261 24.1 45.1 0.00 0.23 0.00 74 1008.0
20260905151515 17 255 33.8 46.7 0.00 0.23 0.00 75 1007.9
20260905150514 17 281 22.5 46.7 0.00 0.23 0.00 72 1007.9
20260905144515 18 262 27.4 41.8 0.00 0.23 0.00 73 1007.7
20260905142514 18 257 25.7 45.1 0.00 0.23 0.00 74 1007.6
20260905134516 17 264 29.0 45.1 0.00 0.23 0.00 74 1007.5
20260905133515 17 275 25.7 37.0 0.00 0.23 0.00 78 1007.5
20260905132515 17 266 25.7 35.4 0.00 0.23 0.00 81 1007.3
20260905131515 16 258 30.6 45.1 0.00 0.28 0.00 77 1007.4
20260905125516 18 257 27.4 46.7 0.00 0.41 0.00 75 1007.3
20260905121514 17 255 25.7 41.8 0.00 0.61 0.00 77 1006.9
20260905120516 17 264 22.5 41.8 0.00 0.64 0.00 77 1006.9
20260905115515 17 249 19.3 40.2 0.00 0.71 0.00 79 1006.8
20260905112515 17 251 20.9 40.2 0.00 0.79 0.00 79 1006.6
20260905110515 17 311 20.9 33.8 0.00 0.84 0.00 78 1006.4
20260905102515 17 314 25.7 40.2 0.00 0.89 0.00 77 1006.1
20260905101516 17 261 25.7 41.8 0.00 0.89 0.00 77 1006.1
20260905095515 17 258 24.1 40.2 0.00 0.91 0.00 77 1006.0
20260905093515 16 269 27.4 40.2 0.00 0.91 0.00 77 1005.8
20260905090515 17 310 29.0 45.1 0.00 0.97 0.00 76 1005.5
20260905085515 17 305 29.0 41.8 0.00 0.99 0.00 78 1005.4
20260905084516 17 253 20.9 33.8 0.00 0.99 0.00 79 1005.5
20260905080515 16 321 17.7 35.4 0.00 0.99 0.00 80 1005.3
20260905075517 16 324 20.9 32.2 0.00 0.99 0.00 81 1005.3
20260905074515 16 272 24.1 40.2 0.00 0.99 0.00 79 1005.1
20260905072515 16 273 22.5 40.2 0.00 0.99 0.00 82 1005.0
20260905063515 16 252 20.9 33.8 0.00 0.99 0.00 83 1004.6
20260905060515 15 236 17.7 29.0 0.00 0.99 0.00 85 1004.4
20260905053515 15 308 22.5 40.2 0.00 0.99 0.00 84 1004.2
20260905052516 15 312 19.3 32.2 0.00 0.99 0.00 84 1004.2
20260905050515 15 286 20.9 33.8 0.00 0.99 0.00 84 1003.9
20260905043516 15 273 17.7 37.0 0.00 0.99 0.00 85 1003.5
20260905042515 15 265 20.9 33.8 0.00 0.99 0.00 85 1003.5
20260905040515 15 261 22.5 41.8 0.00 0.99 0.00 85 1003.3
20260905033515 15 248 19.3 29.0 0.00 0.99 0.00 85 1003.0
20260905031515 15 268 20.9 40.2 0.00 0.99 0.00 85 1003.0
20260905030515 15 249 22.5 32.2 0.00 0.99 0.00 84 1002.9
20260905024515 15 281 22.5 45.1 0.00 0.99 0.00 84 1002.7
20260905021515 15 288 24.1 41.8 0.00 0.99 0.00 84 1002.3
20260905015515 15 268 27.4 45.1 0.00 0.99 0.00 85 1002.1
20260905014515 15 270 27.4 40.2 0.00 0.99 0.00 86 1001.8
20260905013515 15 260 33.8 40.2 0.00 0.99 0.00 86 1001.7
20260905012515 15 275 22.5 41.8 0.00 0.99 0.00 86 1001.6
20260905011515 15 281 24.1 35.4 0.00 0.99 0.00 86 1001.6
20260905010515 15 268 20.9 32.2 0.00 0.99 0.00 87 1001.5
20260905005516 15 286 20.9 37.0 0.00 0.99 0.00 87 1001.5
20260905002515 15 273 27.4 40.2 0.00 0.99 0.00 86 1001.2
20260905001515 15 276 27.4 41.8 0.00 0.99 0.00 87 1001.0
20260905000515 15 249 25.7 38.6 0.00 0.99 0.00 87 1000.9
20260904235515 15 257 20.9 35.4 0.00 0.99 0.00 88 1000.9
20260904232515 15 273 22.5 38.6 0.00 0.99 0.00 87 1000.9
20260904231515 15 280 20.9 32.2 0.00 0.99 0.00 87 1000.8
20260904225515 15 272 20.9 38.6 0.00 0.99 0.00 86 1000.8
20260904224516 15 268 22.5 38.6 0.00 0.99 0.00 86 1000.7
20260904222516 15 276 35.4 45.1 0.00 0.99 0.00 86 1000.7
20260904221510 15 261 22.5 41.8 0.00 0.99 0.00 86 1000.6
20260904220515 15 267 24.1 41.8 0.00 0.99 0.00 87 1000.5
20260904213515 15 258 22.5 37.0 0.00 0.99 0.99 87 1000.3
20260904212515 14 275 25.7 40.2 0.00 1.02 0.99 87 1000.3
20260904211516 14 252 29.0 40.2 0.00 1.02 0.99 88 1000.1
20260904210516 14 260 27.4 40.2 0.00 1.02 0.99 88 1000.1
20260904203516 14 253 19.3 37.0 0.00 1.02 0.99 91 999.7
20260904202515 14 283 32.2 38.6 0.00 1.02 0.99 91 999.7
20260904200514 14 262 25.7 37.0 0.00 1.02 0.99 94 999.5
20260904193515 13 318 14.5 25.7 0.15 1.02 0.99 94 999.2
20260904191517 13 259 14.5 25.7 0.15 1.02 0.99 94 999.1
20260904190514 13 269 14.5 24.1 0.18 1.02 0.99 94 998.8
20260904184515 14 255 16.1 24.1 0.13 0.91 0.89 94 998.9
20260904175515 15 237 14.5 22.5 0.00 0.79 0.79 92 998.5